Location: Le Rocchette
(44.3500°N, 7.8333°E)
Time: 22:29:14
(UTC+00:00)

PSLV R/B - Pass Details

Date: 27 February 2020
Orbit: 505 x 578 km, 97.8° (Epoch: 05 April)

Event Time Altitude Azimuth Distance (km) Brightness Sun altitude
Rises 04:15:14 0° 20° (NNE) 2,658 7.7 -21.3°
Reaches altitude 10° 04:17:26 10° 29° (NNE) 1,775 6.9 -21.0°
Maximum altitude 04:21:01 38° 99° (E) 831 5.2 -20.3°
Drops below altitude 10° 04:24:39 10° 168° (SSE) 1,801 6.5 -19.7°
Sets 04:26:54 0° 176° (S) 2,702 7.3 -19.3°
